sat.trackr.live / text

‹ back to catalog

GRACE-FO 1

NORAD 43476 · 2018-047A

PAYLOAD ACTIVE UNKNOWN

§ Identity

Operator
Country
US
Launch date
2018-05-22
Launch site
AFWTR
Launch vehicle
Mass (kg)
RCS (m²)

External: N2YO · Heavens-Above · Gunter

§ Orbital elements

Epoch: 2026-05-25T04:41:11.232096Z

Period
93.62 min
Inclination
88.9938°
Eccentricity
0.0010280
Mean motion
15.38084438 rev/d
Perigee alt
444.8 km
Apogee alt
458.8 km
Semi-major
6,829.9 km
B*
8.8923e-5
RAAN
201.1140°
Arg perigee
184.0057°
Mean anomaly
176.1117°
Rev number
44,626

§ Raw data

GRACE-FO 11 43476U 18047A   26145.19526889  .00003368  00000+0  88923-4 0  99932 43476  88.9938 201.1140 0010280 184.0057 176.1117 15.38084438446266

JSON: /api/v1/satellites/43476 · /tle

For live sub-satellite position, see the globe view (requires WebGL).

§ Visibility from observer

Set your observer location to see the next 7 days of passes ≥ 10°. The values pass through the URL so the page stays shareable.

No JS? Fill the form by hand. The geolocation button needs JavaScript.